Location: Broletto
(44.6000°N, 10.5833°E)
Time: 07:58:46
(UTC+00:00)

Cosmos 1745 Rocket - Pass Details

Date: 18 April 2021
Orbit: 953 x 998 km, 83.0° (Epoch: 06 May)

Event Time Altitude Azimuth Distance (km) Brightness Sun altitude
Rises 21:48:20 0° 353° (N) 3,717 8.1 -30.8°
Reaches altitude 10° 21:50:54 10° 356° (N) 2,759 7.1 -30.9°
Enters shadow 21:56:33 65° 41° (NE) 1,079 4.2 -31.4°
